Year,Month,Day,Hour,Minute,Value (Times are PST for temperature in C)
2006,06,24,00,00,14.80
2006,06,24,00,01,14.70
2006,06,24,00,02,14.70
2006,06,24,00,03,14.70
2006,06,24,00,04,14.60
2006,06,24,00,05,14.60
2006,06,24,00,06,14.60
2006,06,24,00,07,14.60
2006,06,24,00,08,14.50
2006,06,24,00,09,14.50
2006,06,24,00,10,14.50
2006,06,24,00,11,14.50
2006,06,24,00,12,14.50
2006,06,24,00,13,14.50
2006,06,24,00,14,14.50
2006,06,24,00,15,14.50
2006,06,24,00,16,14.50
2006,06,24,00,17,14.50
2006,06,24,00,18,14.40
2006,06,24,00,19,14.40
2006,06,24,00,20,14.40
2006,06,24,00,21,14.30
2006,06,24,00,22,14.30
2006,06,24,00,23,14.20
2006,06,24,00,24,14.20
2006,06,24,00,25,14.20
2006,06,24,00,26,14.20
2006,06,24,00,27,14.20
2006,06,24,00,28,14.20
2006,06,24,00,29,14.20
2006,06,24,00,30,14.10
2006,06,24,00,31,14.10
2006,06,24,00,32,14.10
2006,06,24,00,33,14.10
2006,06,24,00,34,14.10
2006,06,24,00,35,14.00
2006,06,24,00,36,14.00
2006,06,24,00,37,14.00
2006,06,24,00,38,14.00
2006,06,24,00,39,14.00
2006,06,24,00,40,14.00
2006,06,24,00,41,14.00
2006,06,24,00,42,14.00
2006,06,24,00,43,14.00
2006,06,24,00,44,14.00
2006,06,24,00,45,14.00
2006,06,24,00,46,14.00
2006,06,24,00,47,14.00
2006,06,24,00,48,14.00
2006,06,24,00,49,14.00
2006,06,24,00,50,14.00
2006,06,24,00,51,14.00
2006,06,24,00,52,14.00
2006,06,24,00,53,13.90
2006,06,24,00,54,13.90
2006,06,24,00,55,13.90
2006,06,24,00,56,13.90
2006,06,24,00,57,13.90
2006,06,24,00,58,13.90
2006,06,24,00,59,13.90
2006,06,24,01,00,13.90
2006,06,24,01,01,13.90
2006,06,24,01,02,13.90
2006,06,24,01,03,13.90
2006,06,24,01,04,13.90
2006,06,24,01,05,13.90
2006,06,24,01,06,13.90
2006,06,24,01,07,13.90
2006,06,24,01,08,13.90
2006,06,24,01,09,13.90
2006,06,24,01,10,13.80
2006,06,24,01,11,13.80
2006,06,24,01,12,13.70
2006,06,24,01,13,13.70
2006,06,24,01,14,13.70
2006,06,24,01,15,13.70
2006,06,24,01,16,13.70
2006,06,24,01,17,13.70
2006,06,24,01,18,13.60
2006,06,24,01,19,13.60
2006,06,24,01,20,13.60
2006,06,24,01,21,13.60
2006,06,24,01,22,13.60
2006,06,24,01,23,13.60
2006,06,24,01,24,13.60
2006,06,24,01,25,13.50
2006,06,24,01,26,13.50
2006,06,24,01,27,13.50
2006,06,24,01,28,13.50
2006,06,24,01,29,13.50
2006,06,24,01,30,13.50
2006,06,24,01,31,13.50
2006,06,24,01,32,13.50
2006,06,24,01,33,13.60
2006,06,24,01,34,13.60
2006,06,24,01,35,13.60
2006,06,24,01,36,13.60
2006,06,24,01,37,13.60
2006,06,24,01,38,13.70
2006,06,24,01,39,13.70
2006,06,24,01,40,13.70
2006,06,24,01,41,13.70
2006,06,24,01,42,13.70
2006,06,24,01,43,13.80
2006,06,24,01,44,13.80
2006,06,24,01,45,13.80
2006,06,24,01,46,13.80
2006,06,24,01,47,13.90
2006,06,24,01,48,13.90
2006,06,24,01,49,13.90
2006,06,24,01,50,13.90
2006,06,24,01,51,13.90
2006,06,24,01,52,14.00
2006,06,24,01,53,14.00
2006,06,24,01,54,14.00
2006,06,24,01,55,14.00
2006,06,24,01,56,14.00
2006,06,24,01,57,14.00
2006,06,24,01,58,13.90
2006,06,24,01,59,13.90
2006,06,24,02,00,13.90
2006,06,24,02,01,13.90
2006,06,24,02,02,13.90
2006,06,24,02,03,13.90
2006,06,24,02,04,13.90
2006,06,24,02,05,14.00
2006,06,24,02,06,13.90
2006,06,24,02,07,13.90
2006,06,24,02,08,13.90
2006,06,24,02,09,13.90
2006,06,24,02,10,13.90
2006,06,24,02,11,13.90
2006,06,24,02,12,13.90
2006,06,24,02,13,13.90
2006,06,24,02,14,13.90
2006,06,24,02,15,13.90
2006,06,24,02,16,13.90
2006,06,24,02,17,13.90
2006,06,24,02,18,13.90
2006,06,24,02,19,13.90
2006,06,24,02,20,13.90
2006,06,24,02,21,13.90
2006,06,24,02,22,13.90
2006,06,24,02,23,13.90
2006,06,24,02,24,13.90
2006,06,24,02,25,13.90
2006,06,24,02,26,13.90
2006,06,24,02,27,13.90
2006,06,24,02,28,13.90
2006,06,24,02,29,13.90
2006,06,24,02,30,13.90
2006,06,24,02,31,13.90
2006,06,24,02,32,13.90
2006,06,24,02,33,13.80
2006,06,24,02,34,13.80
2006,06,24,02,35,13.80
2006,06,24,02,36,13.80
2006,06,24,02,37,13.80
2006,06,24,02,38,13.70
2006,06,24,02,39,13.70
2006,06,24,02,40,13.70
2006,06,24,02,41,13.70
2006,06,24,02,42,13.70
2006,06,24,02,43,13.70
2006,06,24,02,44,13.70
2006,06,24,02,45,13.70
2006,06,24,02,46,13.70
2006,06,24,02,47,13.70
2006,06,24,02,48,13.70
2006,06,24,02,49,13.70
2006,06,24,02,50,13.70
2006,06,24,02,51,13.70
2006,06,24,02,52,13.70
2006,06,24,02,53,13.70
2006,06,24,02,54,13.70
2006,06,24,02,55,13.70
2006,06,24,02,56,13.70
2006,06,24,02,57,13.60
2006,06,24,02,58,13.60
2006,06,24,02,59,13.60
2006,06,24,03,00,13.60
2006,06,24,03,01,13.60
2006,06,24,03,02,13.60
2006,06,24,03,03,13.60
2006,06,24,03,04,13.60
2006,06,24,03,05,13.60
2006,06,24,03,06,13.60
2006,06,24,03,07,13.60
2006,06,24,03,08,13.60
2006,06,24,03,09,13.60
2006,06,24,03,10,13.60
2006,06,24,03,11,13.60
2006,06,24,03,12,13.60
2006,06,24,03,13,13.60
2006,06,24,03,14,13.60
2006,06,24,03,15,13.60
2006,06,24,03,16,13.60
2006,06,24,03,17,13.60
2006,06,24,03,18,13.60
2006,06,24,03,19,13.60
2006,06,24,03,20,13.60
2006,06,24,03,21,13.60
2006,06,24,03,22,13.50
2006,06,24,03,23,13.50
2006,06,24,03,24,13.50
2006,06,24,03,25,13.50
2006,06,24,03,26,13.50
2006,06,24,03,27,13.50
2006,06,24,03,28,13.50
2006,06,24,03,29,13.50
2006,06,24,03,30,13.50
2006,06,24,03,31,13.50
2006,06,24,03,32,13.50
2006,06,24,03,33,13.50
2006,06,24,03,34,13.50
2006,06,24,03,35,13.50
2006,06,24,03,36,13.50
2006,06,24,03,37,13.50
2006,06,24,03,38,13.40
2006,06,24,03,39,13.40
2006,06,24,03,40,13.40
2006,06,24,03,41,13.40
2006,06,24,03,42,13.40
2006,06,24,03,43,13.40
2006,06,24,03,44,13.40
2006,06,24,03,45,13.40
2006,06,24,03,46,13.40
2006,06,24,03,47,13.40
2006,06,24,03,48,13.40
2006,06,24,03,49,13.40
2006,06,24,03,50,13.40
2006,06,24,03,51,13.40
2006,06,24,03,52,13.40
2006,06,24,03,53,13.40
2006,06,24,03,54,13.40
2006,06,24,03,55,13.50
2006,06,24,03,56,13.50
2006,06,24,03,57,13.50
2006,06,24,03,58,13.50
2006,06,24,03,59,13.50
2006,06,24,04,00,13.50
2006,06,24,04,01,13.50
2006,06,24,04,02,13.50
2006,06,24,04,03,13.50
2006,06,24,04,04,13.50
2006,06,24,04,05,13.60
2006,06,24,04,06,13.60
2006,06,24,04,07,13.60
2006,06,24,04,08,13.60
2006,06,24,04,09,13.50
2006,06,24,04,10,13.50
2006,06,24,04,11,13.50
2006,06,24,04,12,13.50
2006,06,24,04,13,13.50
2006,06,24,04,14,13.50
2006,06,24,04,15,13.50
2006,06,24,04,16,13.50
2006,06,24,04,17,13.50
2006,06,24,04,18,13.60
2006,06,24,04,19,13.60
2006,06,24,04,20,13.60
2006,06,24,04,21,13.70
2006,06,24,04,22,13.70
2006,06,24,04,23,13.70
2006,06,24,04,24,13.70
2006,06,24,04,25,13.70
2006,06,24,04,26,13.70
2006,06,24,04,27,13.80
2006,06,24,04,28,13.80
2006,06,24,04,29,13.80
2006,06,24,04,30,13.80
2006,06,24,04,31,13.80
2006,06,24,04,32,13.80
2006,06,24,04,33,13.90
2006,06,24,04,34,13.90
2006,06,24,04,35,13.90
2006,06,24,04,36,13.90
2006,06,24,04,37,13.80
2006,06,24,04,38,13.80
2006,06,24,04,39,13.80
2006,06,24,04,40,13.80
2006,06,24,04,41,13.80
2006,06,24,04,42,13.80
2006,06,24,04,43,13.70
2006,06,24,04,44,13.70
2006,06,24,04,45,13.70
2006,06,24,04,46,13.70
2006,06,24,04,47,13.70
2006,06,24,04,48,13.60
2006,06,24,04,49,13.60
2006,06,24,04,50,13.50
2006,06,24,04,51,13.50
2006,06,24,04,52,13.40
2006,06,24,04,53,13.30
2006,06,24,04,54,13.30
2006,06,24,04,55,13.30
2006,06,24,04,56,13.20
2006,06,24,04,57,13.20
2006,06,24,04,58,13.20
2006,06,24,04,59,13.10
2006,06,24,05,00,13.00
2006,06,24,05,01,12.90
2006,06,24,05,02,12.90
2006,06,24,05,03,12.80
2006,06,24,05,04,12.80
2006,06,24,05,05,12.80
2006,06,24,05,06,12.80
2006,06,24,05,07,12.70
2006,06,24,05,08,12.70
2006,06,24,05,09,12.60
2006,06,24,05,10,12.60
2006,06,24,05,11,12.50
2006,06,24,05,12,12.50
2006,06,24,05,13,12.40
2006,06,24,05,14,12.40
2006,06,24,05,15,12.30
2006,06,24,05,16,12.30
2006,06,24,05,17,12.30
2006,06,24,05,18,12.20
2006,06,24,05,19,12.20
2006,06,24,05,20,12.10
2006,06,24,05,21,12.10
2006,06,24,05,22,12.00
2006,06,24,05,23,12.00
2006,06,24,05,24,11.90
2006,06,24,05,25,11.90
2006,06,24,05,26,11.80
2006,06,24,05,27,11.80
2006,06,24,05,28,11.80
2006,06,24,05,29,11.80
2006,06,24,05,30,11.90
2006,06,24,05,31,11.90
2006,06,24,05,32,11.90
2006,06,24,05,33,12.00
2006,06,24,05,34,12.00
2006,06,24,05,35,12.00
2006,06,24,05,36,12.10
2006,06,24,05,37,12.10
2006,06,24,05,38,12.10
2006,06,24,05,39,12.10
2006,06,24,05,40,12.10
2006,06,24,05,41,12.10
2006,06,24,05,42,12.20
2006,06,24,05,43,12.20
2006,06,24,05,44,12.20
2006,06,24,05,45,12.20
2006,06,24,05,46,12.20
2006,06,24,05,47,12.10
2006,06,24,05,48,12.10
2006,06,24,05,49,12.10
2006,06,24,05,50,12.10
2006,06,24,05,51,12.10
2006,06,24,05,52,12.10
2006,06,24,05,53,12.10
2006,06,24,05,54,12.10
2006,06,24,05,55,12.20
2006,06,24,05,56,12.20
2006,06,24,05,57,12.20
2006,06,24,05,58,12.20
2006,06,24,05,59,12.20
2006,06,24,06,00,12.30
2006,06,24,06,01,12.30
2006,06,24,06,02,12.30
2006,06,24,06,03,12.20
2006,06,24,06,04,12.20
2006,06,24,06,05,12.20
2006,06,24,06,06,12.20
2006,06,24,06,07,12.20
2006,06,24,06,08,12.20
2006,06,24,06,09,12.20
2006,06,24,06,10,12.20
2006,06,24,06,11,12.20
2006,06,24,06,12,12.20
2006,06,24,06,13,12.20
2006,06,24,06,14,12.20
2006,06,24,06,15,12.20
2006,06,24,06,16,12.20
2006,06,24,06,17,12.20
2006,06,24,06,18,12.20
2006,06,24,06,19,12.20
2006,06,24,06,20,12.30
2006,06,24,06,21,12.30
2006,06,24,06,22,12.30
2006,06,24,06,23,12.30
2006,06,24,06,24,12.40
2006,06,24,06,25,12.40
2006,06,24,06,26,12.50
2006,06,24,06,27,12.50
2006,06,24,06,28,12.50
2006,06,24,06,29,12.60
2006,06,24,06,30,12.60
2006,06,24,06,31,12.60
2006,06,24,06,32,12.60
2006,06,24,06,33,12.60
2006,06,24,06,34,12.80
2006,06,24,06,35,12.90
2006,06,24,06,36,12.90
2006,06,24,06,37,13.00
2006,06,24,06,38,13.10
2006,06,24,06,39,13.10
2006,06,24,06,40,13.20
2006,06,24,06,41,13.30
2006,06,24,06,42,13.30
2006,06,24,06,43,13.30
2006,06,24,06,44,13.30
2006,06,24,06,45,13.40
2006,06,24,06,46,13.50
2006,06,24,06,47,13.60
2006,06,24,06,48,13.60
2006,06,24,06,49,13.70
2006,06,24,06,50,13.70
2006,06,24,06,51,13.80
2006,06,24,06,52,13.90
2006,06,24,06,53,14.00
2006,06,24,06,54,14.10
2006,06,24,06,55,14.20
2006,06,24,06,56,14.30
2006,06,24,06,57,14.40
2006,06,24,06,58,14.50
2006,06,24,06,59,14.60
2006,06,24,07,00,14.70
2006,06,24,07,01,14.80
2006,06,24,07,02,14.80
2006,06,24,07,03,14.90
2006,06,24,07,04,15.00
2006,06,24,07,05,15.10
2006,06,24,07,06,15.10
2006,06,24,07,07,15.20
2006,06,24,07,08,15.20
2006,06,24,07,09,15.30
2006,06,24,07,10,15.30
2006,06,24,07,11,15.30
2006,06,24,07,12,15.40
2006,06,24,07,13,15.40
2006,06,24,07,14,15.50
2006,06,24,07,15,15.50
2006,06,24,07,16,15.60
2006,06,24,07,17,15.60
2006,06,24,07,18,15.70
2006,06,24,07,19,15.70
2006,06,24,07,20,15.80
2006,06,24,07,21,15.90
2006,06,24,07,22,16.00
2006,06,24,07,23,16.10
2006,06,24,07,24,16.20
2006,06,24,07,25,16.20
2006,06,24,07,26,16.20
2006,06,24,07,27,16.30
2006,06,24,07,28,16.30
2006,06,24,07,29,16.30
2006,06,24,07,30,16.30
2006,06,24,07,31,16.30
2006,06,24,07,32,16.30
2006,06,24,07,33,16.30
2006,06,24,07,34,16.30
2006,06,24,07,35,16.30
2006,06,24,07,36,16.30
2006,06,24,07,37,16.30
2006,06,24,07,38,16.30
2006,06,24,07,39,16.30
2006,06,24,07,40,16.30
2006,06,24,07,41,16.40
2006,06,24,07,42,16.40
2006,06,24,07,43,16.40
2006,06,24,07,44,16.40
2006,06,24,07,45,16.60
2006,06,24,07,46,16.60
2006,06,24,07,47,16.70
2006,06,24,07,48,16.70
2006,06,24,07,49,16.80
2006,06,24,07,50,16.90
2006,06,24,07,51,17.00
2006,06,24,07,52,17.00
2006,06,24,07,53,17.10
2006,06,24,07,54,17.20
2006,06,24,07,55,17.20
2006,06,24,07,56,17.30
2006,06,24,07,57,17.30
2006,06,24,07,58,17.30
2006,06,24,07,59,17.30
2006,06,24,08,00,17.30
2006,06,24,08,01,17.40
2006,06,24,08,02,17.40
2006,06,24,08,03,17.50
2006,06,24,08,04,17.50
2006,06,24,08,05,17.60
2006,06,24,08,06,17.70
2006,06,24,08,07,17.70
2006,06,24,08,08,17.80
2006,06,24,08,09,17.80
2006,06,24,08,10,17.80
2006,06,24,08,11,17.80
2006,06,24,08,12,17.80
2006,06,24,08,13,17.80
2006,06,24,08,14,17.80
2006,06,24,08,15,17.90
2006,06,24,08,16,17.90
2006,06,24,08,17,17.90
2006,06,24,08,18,17.90
2006,06,24,08,19,17.90
2006,06,24,08,20,17.90
2006,06,24,08,21,17.90
2006,06,24,08,22,17.90
2006,06,24,08,23,17.90
2006,06,24,08,24,18.00
2006,06,24,08,25,18.10
2006,06,24,08,26,18.10
2006,06,24,08,27,18.10
2006,06,24,08,28,18.10
2006,06,24,08,29,18.10
2006,06,24,08,30,18.10
2006,06,24,08,31,18.20
2006,06,24,08,32,18.20
2006,06,24,08,33,18.20
2006,06,24,08,34,18.20
2006,06,24,08,35,18.20
2006,06,24,08,36,18.30
2006,06,24,08,37,18.30
2006,06,24,08,38,18.30
2006,06,24,08,39,18.30
2006,06,24,08,40,18.40
2006,06,24,08,41,18.40
2006,06,24,08,42,18.50
2006,06,24,08,43,18.50
2006,06,24,08,44,18.50
2006,06,24,08,45,18.50
2006,06,24,08,46,18.40
2006,06,24,08,47,18.50
2006,06,24,08,48,18.60
2006,06,24,08,49,18.60
2006,06,24,08,50,18.70
2006,06,24,08,51,18.70
2006,06,24,08,52,18.60
2006,06,24,08,53,18.70
2006,06,24,08,54,18.70
2006,06,24,08,55,18.70
2006,06,24,08,56,18.80
2006,06,24,08,57,18.90
2006,06,24,08,58,18.90
2006,06,24,08,59,18.90
2006,06,24,09,00,18.90
2006,06,24,09,01,18.80
2006,06,24,09,02,18.80
2006,06,24,09,03,18.70
2006,06,24,09,04,18.60
2006,06,24,09,05,18.60
2006,06,24,09,06,18.60
2006,06,24,09,07,18.70
2006,06,24,09,08,18.70
2006,06,24,09,09,18.80
2006,06,24,09,10,18.70
2006,06,24,09,11,18.70
2006,06,24,09,12,18.70
2006,06,24,09,13,18.70
2006,06,24,09,14,18.70
2006,06,24,09,15,18.70
2006,06,24,09,16,18.90
2006,06,24,09,17,18.90
2006,06,24,09,18,18.90
2006,06,24,09,19,18.90
2006,06,24,09,20,19.00
2006,06,24,09,21,19.10
2006,06,24,09,22,19.10
2006,06,24,09,23,19.10
2006,06,24,09,24,19.10
2006,06,24,09,25,19.20
2006,06,24,09,26,19.30
2006,06,24,09,27,19.40
2006,06,24,09,28,19.50
2006,06,24,09,29,19.50
2006,06,24,09,30,19.60
2006,06,24,09,31,19.60
2006,06,24,09,32,19.50
2006,06,24,09,33,19.50
2006,06,24,09,34,19.50
2006,06,24,09,35,19.60
2006,06,24,09,36,19.60
2006,06,24,09,37,19.50
2006,06,24,09,38,19.50
2006,06,24,09,39,19.50
2006,06,24,09,40,19.50
2006,06,24,09,41,19.40
2006,06,24,09,42,19.30
2006,06,24,09,43,19.30
2006,06,24,09,44,19.30
2006,06,24,09,45,19.40
2006,06,24,09,46,19.50
2006,06,24,09,47,19.50
2006,06,24,09,48,19.60
2006,06,24,09,49,19.60
2006,06,24,09,50,19.70
2006,06,24,09,51,19.80
2006,06,24,09,52,19.90
2006,06,24,09,53,19.90
2006,06,24,09,54,19.90
2006,06,24,09,55,19.80
2006,06,24,09,56,19.90
2006,06,24,09,57,19.90
2006,06,24,09,58,20.00
2006,06,24,09,59,20.10
2006,06,24,10,00,20.10
2006,06,24,10,01,20.10
2006,06,24,10,02,20.10
2006,06,24,10,03,20.10
2006,06,24,10,04,20.10
2006,06,24,10,05,20.10
2006,06,24,10,06,20.20
2006,06,24,10,07,20.10
2006,06,24,10,08,20.10
2006,06,24,10,09,20.20
2006,06,24,10,10,20.20
2006,06,24,10,11,20.20
2006,06,24,10,12,20.30
2006,06,24,10,13,20.30
2006,06,24,10,14,20.40
2006,06,24,10,15,20.40
2006,06,24,10,16,20.40
2006,06,24,10,17,20.40
2006,06,24,10,18,20.50
2006,06,24,10,19,20.60
2006,06,24,10,20,20.70
2006,06,24,10,21,20.80
2006,06,24,10,22,20.90
2006,06,24,10,23,20.90
2006,06,24,10,24,21.00
2006,06,24,10,25,21.10
2006,06,24,10,26,21.20
2006,06,24,10,27,21.20
2006,06,24,10,28,21.20
2006,06,24,10,29,21.20
2006,06,24,10,30,21.10
2006,06,24,10,31,21.00
2006,06,24,10,32,21.00
2006,06,24,10,33,20.90
2006,06,24,10,34,20.90
2006,06,24,10,35,20.80
2006,06,24,10,36,20.80
2006,06,24,10,37,20.80
2006,06,24,10,38,20.90
2006,06,24,10,39,20.90
2006,06,24,10,40,20.80
2006,06,24,10,41,20.80
2006,06,24,10,42,20.70
2006,06,24,10,43,20.70
2006,06,24,10,44,20.80
2006,06,24,10,45,20.90
2006,06,24,10,46,21.00
2006,06,24,10,47,21.10
2006,06,24,10,48,21.20
2006,06,24,10,49,21.40
2006,06,24,10,50,21.50
2006,06,24,10,51,21.60
2006,06,24,10,52,21.60
2006,06,24,10,53,21.60
2006,06,24,10,54,21.70
2006,06,24,10,55,21.70
2006,06,24,10,56,21.60
2006,06,24,10,57,21.50
2006,06,24,10,58,21.40
2006,06,24,10,59,21.30
2006,06,24,11,00,21.30
2006,06,24,11,01,21.30
2006,06,24,11,02,21.30
2006,06,24,11,03,21.30
2006,06,24,11,04,21.30
2006,06,24,11,05,21.40
2006,06,24,11,06,21.50
2006,06,24,11,07,21.60
2006,06,24,11,08,21.60
2006,06,24,11,09,21.70
2006,06,24,11,10,21.70
2006,06,24,11,11,21.70
2006,06,24,11,12,21.70
2006,06,24,11,13,21.80
2006,06,24,11,14,21.80
2006,06,24,11,15,21.80
2006,06,24,11,16,21.90
2006,06,24,11,17,22.00
2006,06,24,11,18,22.00
2006,06,24,11,19,22.10
2006,06,24,11,20,22.20
2006,06,24,11,21,22.20
2006,06,24,11,22,22.30
2006,06,24,11,23,22.30
2006,06,24,11,24,22.30
2006,06,24,11,25,22.30
2006,06,24,11,26,22.40
2006,06,24,11,27,22.30
2006,06,24,11,28,22.20
2006,06,24,11,29,22.20
2006,06,24,11,30,22.30
2006,06,24,11,31,22.30
2006,06,24,11,32,22.30
2006,06,24,11,33,22.30
2006,06,24,11,34,22.40
2006,06,24,11,35,22.40
2006,06,24,11,36,22.40
2006,06,24,11,37,22.40
2006,06,24,11,38,22.40
2006,06,24,11,39,22.50
2006,06,24,11,40,22.50
2006,06,24,11,41,22.40
2006,06,24,11,42,22.50
2006,06,24,11,43,22.50
2006,06,24,11,44,22.60
2006,06,24,11,45,22.60
2006,06,24,11,46,22.60
2006,06,24,11,47,22.60
2006,06,24,11,48,22.70
2006,06,24,11,49,22.70
2006,06,24,11,50,22.80
2006,06,24,11,51,22.80
2006,06,24,11,52,22.90
2006,06,24,11,53,22.90
2006,06,24,11,54,22.90
2006,06,24,11,55,22.90
2006,06,24,11,56,22.90
2006,06,24,11,57,22.90
2006,06,24,11,58,22.90
2006,06,24,11,59,23.10
2006,06,24,12,00,23.10
2006,06,24,12,01,23.10
2006,06,24,12,02,23.10
2006,06,24,12,03,23.20
2006,06,24,12,04,23.20
2006,06,24,12,05,23.20
2006,06,24,12,06,23.20
2006,06,24,12,07,23.20
2006,06,24,12,08,23.10
2006,06,24,12,09,23.10
2006,06,24,12,10,22.90
2006,06,24,12,11,23.00
2006,06,24,12,12,23.10
2006,06,24,12,13,23.00
2006,06,24,12,14,22.90
2006,06,24,12,15,22.80
2006,06,24,12,16,22.70
2006,06,24,12,17,22.80
2006,06,24,12,18,22.80
2006,06,24,12,19,22.90
2006,06,24,12,20,22.90
2006,06,24,12,21,22.90
2006,06,24,12,22,22.90
2006,06,24,12,23,23.10
2006,06,24,12,24,23.20
2006,06,24,12,25,23.30
2006,06,24,12,26,23.50
2006,06,24,12,27,23.60
2006,06,24,12,28,23.60
2006,06,24,12,29,23.70
2006,06,24,12,30,23.70
2006,06,24,12,31,23.70
2006,06,24,12,32,23.80
2006,06,24,12,33,23.90
2006,06,24,12,34,23.90
2006,06,24,12,35,23.90
2006,06,24,12,36,23.90
2006,06,24,12,37,23.90
2006,06,24,12,38,23.90
2006,06,24,12,39,23.90
2006,06,24,12,40,24.00
2006,06,24,12,41,24.10
2006,06,24,12,42,24.10
2006,06,24,12,43,24.10
2006,06,24,12,44,24.10
2006,06,24,12,45,24.10
2006,06,24,12,46,24.20
2006,06,24,12,47,24.20
2006,06,24,12,48,24.20
2006,06,24,12,49,24.10
2006,06,24,12,50,24.10
2006,06,24,12,51,24.10
2006,06,24,12,52,24.10
2006,06,24,12,53,24.20
2006,06,24,12,54,24.30
2006,06,24,12,55,24.40
2006,06,24,12,56,24.50
2006,06,24,12,57,24.60
2006,06,24,12,58,24.60
2006,06,24,12,59,24.60
2006,06,24,13,00,24.60
2006,06,24,13,01,24.60
2006,06,24,13,02,24.60
2006,06,24,13,03,24.60
2006,06,24,13,04,24.50
2006,06,24,13,05,24.30
2006,06,24,13,06,24.30
2006,06,24,13,07,24.30
2006,06,24,13,08,24.30
2006,06,24,13,09,24.20
2006,06,24,13,10,24.20
2006,06,24,13,11,24.20
2006,06,24,13,12,24.20
2006,06,24,13,13,24.30
2006,06,24,13,14,24.30
2006,06,24,13,15,24.20
2006,06,24,13,16,24.20
2006,06,24,13,17,24.10
2006,06,24,13,18,24.10
2006,06,24,13,19,24.10
2006,06,24,13,20,24.10
2006,06,24,13,21,24.20
2006,06,24,13,22,24.30
2006,06,24,13,23,24.40
2006,06,24,13,24,24.50
2006,06,24,13,25,24.50
2006,06,24,13,26,24.60
2006,06,24,13,27,24.80
2006,06,24,13,28,24.90
2006,06,24,13,29,25.10
2006,06,24,13,30,25.20
2006,06,24,13,31,25.20
2006,06,24,13,32,25.20
2006,06,24,13,33,25.20
2006,06,24,13,34,25.20
2006,06,24,13,35,25.20
2006,06,24,13,36,25.30
2006,06,24,13,37,25.30
2006,06,24,13,38,25.20
2006,06,24,13,39,25.00
2006,06,24,13,40,24.90
2006,06,24,13,41,24.80
2006,06,24,13,42,24.60
2006,06,24,13,43,24.50
2006,06,24,13,44,24.40
2006,06,24,13,45,24.50
2006,06,24,13,46,24.50
2006,06,24,13,47,24.50
2006,06,24,13,48,24.50
2006,06,24,13,49,24.50
2006,06,24,13,50,24.40
2006,06,24,13,51,24.40
2006,06,24,13,52,24.40
2006,06,24,13,53,24.40
2006,06,24,13,54,24.30
2006,06,24,13,55,24.30
2006,06,24,13,56,24.40
2006,06,24,13,57,24.50
2006,06,24,13,58,24.60
2006,06,24,13,59,24.80
2006,06,24,14,00,24.80
2006,06,24,14,01,24.90
2006,06,24,14,02,25.00
2006,06,24,14,03,25.10
2006,06,24,14,04,25.20
2006,06,24,14,05,25.20
2006,06,24,14,06,25.20
2006,06,24,14,07,25.20
2006,06,24,14,08,25.20
2006,06,24,14,09,25.10
2006,06,24,14,10,25.10
2006,06,24,14,11,25.20
2006,06,24,14,12,25.20
2006,06,24,14,13,25.30
2006,06,24,14,14,25.40
2006,06,24,14,15,25.40
2006,06,24,14,16,25.50
2006,06,24,14,17,25.60
2006,06,24,14,18,25.60
2006,06,24,14,19,25.70
2006,06,24,14,20,25.80
2006,06,24,14,21,25.90
2006,06,24,14,22,25.90
2006,06,24,14,23,25.90
2006,06,24,14,24,25.90
2006,06,24,14,25,26.00
2006,06,24,14,26,26.00
2006,06,24,14,27,26.00
2006,06,24,14,28,26.00
2006,06,24,14,29,26.10
2006,06,24,14,30,26.00
2006,06,24,14,31,26.00
2006,06,24,14,32,26.10
2006,06,24,14,33,26.10
2006,06,24,14,34,26.10
2006,06,24,14,35,26.00
2006,06,24,14,36,26.00
2006,06,24,14,37,26.00
2006,06,24,14,38,26.10
2006,06,24,14,39,26.10
2006,06,24,14,40,26.20
2006,06,24,14,41,26.20
2006,06,24,14,42,26.20
2006,06,24,14,43,26.30
2006,06,24,14,44,26.40
2006,06,24,14,45,26.40
2006,06,24,14,46,26.40
2006,06,24,14,47,26.40
2006,06,24,14,48,26.40
2006,06,24,14,49,26.40
2006,06,24,14,50,26.40
2006,06,24,14,51,26.40
2006,06,24,14,52,26.40
2006,06,24,14,53,26.40
2006,06,24,14,54,26.40
2006,06,24,14,55,26.40
2006,06,24,14,56,26.60
2006,06,24,14,57,26.60
2006,06,24,14,58,26.60
2006,06,24,14,59,26.70
2006,06,24,15,00,26.70
2006,06,24,15,01,26.70
2006,06,24,15,02,26.70
2006,06,24,15,03,26.60
2006,06,24,15,04,26.60
2006,06,24,15,05,26.60
2006,06,24,15,06,26.60
2006,06,24,15,07,26.60
2006,06,24,15,08,26.60
2006,06,24,15,09,26.60
2006,06,24,15,10,26.60
2006,06,24,15,11,26.60
2006,06,24,15,12,26.70
2006,06,24,15,13,26.70
2006,06,24,15,14,26.60
2006,06,24,15,15,26.60
2006,06,24,15,16,26.60
2006,06,24,15,17,26.60
2006,06,24,15,18,26.60
2006,06,24,15,19,26.70
2006,06,24,15,20,26.70
2006,06,24,15,21,26.80
2006,06,24,15,22,26.90
2006,06,24,15,23,26.80
2006,06,24,15,24,26.80
2006,06,24,15,25,26.80
2006,06,24,15,26,26.80
2006,06,24,15,27,26.80
2006,06,24,15,28,26.70
2006,06,24,15,29,26.60
2006,06,24,15,30,26.60
2006,06,24,15,31,26.60
2006,06,24,15,32,26.70
2006,06,24,15,33,26.70
2006,06,24,15,34,26.70
2006,06,24,15,35,26.70
2006,06,24,15,36,26.70
2006,06,24,15,37,26.80
2006,06,24,15,38,26.90
2006,06,24,15,39,27.00
2006,06,24,15,40,27.10
2006,06,24,15,41,27.20
2006,06,24,15,42,27.30
2006,06,24,15,43,27.30
2006,06,24,15,44,27.30
2006,06,24,15,45,27.30
2006,06,24,15,46,27.30
2006,06,24,15,47,27.30
2006,06,24,15,48,27.30
2006,06,24,15,49,27.30
2006,06,24,15,50,27.20
2006,06,24,15,51,27.10
2006,06,24,15,52,27.10
2006,06,24,15,53,27.00
2006,06,24,15,54,26.90
2006,06,24,15,55,27.00
2006,06,24,15,56,27.10
2006,06,24,15,57,27.10
2006,06,24,15,58,27.10
2006,06,24,15,59,27.20
2006,06,24,16,00,27.20
2006,06,24,16,01,27.20
2006,06,24,16,02,27.20
2006,06,24,16,03,27.30
2006,06,24,16,04,27.30
2006,06,24,16,05,27.40
2006,06,24,16,06,27.30
2006,06,24,16,07,27.10
2006,06,24,16,08,27.00
2006,06,24,16,09,26.80
2006,06,24,16,10,26.60
2006,06,24,16,11,26.50
2006,06,24,16,12,26.20
2006,06,24,16,13,26.00
2006,06,24,16,14,26.00
2006,06,24,16,15,26.10
2006,06,24,16,16,26.20
2006,06,24,16,17,26.30
2006,06,24,16,18,26.40
2006,06,24,16,19,26.40
2006,06,24,16,20,26.40
2006,06,24,16,21,26.60
2006,06,24,16,22,26.60
2006,06,24,16,23,26.60
2006,06,24,16,24,26.70
2006,06,24,16,25,26.80
2006,06,24,16,26,26.80
2006,06,24,16,27,26.90
2006,06,24,16,28,27.00
2006,06,24,16,29,27.10
2006,06,24,16,30,27.20
2006,06,24,16,31,27.20
2006,06,24,16,32,27.20
2006,06,24,16,33,27.40
2006,06,24,16,34,27.40
2006,06,24,16,35,27.60
2006,06,24,16,36,27.60
2006,06,24,16,37,27.60
2006,06,24,16,38,27.60
2006,06,24,16,39,27.60
2006,06,24,16,40,27.60
2006,06,24,16,41,27.60
2006,06,24,16,42,27.70
2006,06,24,16,43,27.50
2006,06,24,16,44,27.40
2006,06,24,16,45,27.20
2006,06,24,16,46,27.20
2006,06,24,16,47,27.20
2006,06,24,16,48,27.10
2006,06,24,16,49,27.10
2006,06,24,16,50,27.10
2006,06,24,16,51,27.10
2006,06,24,16,52,27.20
2006,06,24,16,53,27.20
2006,06,24,16,54,27.10
2006,06,24,16,55,26.90
2006,06,24,16,56,26.40
2006,06,24,16,57,25.90
2006,06,24,16,58,25.50
2006,06,24,16,59,25.00
2006,06,24,17,00,24.60
2006,06,24,17,01,24.40
2006,06,24,17,02,24.20
2006,06,24,17,03,24.20
2006,06,24,17,04,24.30
2006,06,24,17,05,24.40
2006,06,24,17,06,24.50
2006,06,24,17,07,24.50
2006,06,24,17,08,24.70
2006,06,24,17,09,24.70
2006,06,24,17,10,24.80
2006,06,24,17,11,24.90
2006,06,24,17,12,25.00
2006,06,24,17,13,25.10
2006,06,24,17,14,25.30
2006,06,24,17,15,25.50
2006,06,24,17,16,25.70
2006,06,24,17,17,25.90
2006,06,24,17,18,26.00
2006,06,24,17,19,26.10